When you browse on this site, cookies collect data to enhance your experience and personalize the content and advertising you see.
Visit our Privacy Policy to learn more. By continuing to use the site, you agree to this use of cookies and data.
  • In Italy
  • List of Countries
  • For 7 days
  • Water Temperature
  • Satellite Maps
  • Weather Map
  • Weather Widgets
  • user-avatar
    Login

    Hourly Weather Ropotamo

    Today, 18 June, Tuesday

    Time Temperature Precipitation Wind Pressure Humidity
    00:00 +21°C° 0 mm 3 mps 756 mmHg 95%
    01:00 +21°C° 0 mm 3 mps 756 mmHg 95%
    02:00 +20°C° 0 mm 3 mps 756 mmHg 94%
    03:00 +20°C° 0 mm 3 mps 756 mmHg 94%
    04:00 +19°C° 0 mm 3 mps 756 mmHg 93%
    05:00 +19°C° 0 mm 3 mps 755 mmHg 92%
    06:00 +21°C° 0 mm 3 mps 756 mmHg 85%
    07:00 +22°C° 0 mm 4 mps 756 mmHg 78%
    08:00 +25°C° 0 mm 4 mps 756 mmHg 71%
    09:00 +26°C° 0 mm 5 mps 756 mmHg 66%
    10:00 +28°C° 0 mm 5 mps 756 mmHg 62%
    11:00 +29°C° 0 mm 5 mps 757 mmHg 58%
    12:00 +29°C° 0 mm 5 mps 756 mmHg 57%
    13:00 +29°C° 0 mm 5 mps 756 mmHg 56%
    14:00 +29°C° 0 mm 5 mps 756 mmHg 55%
    15:00 +29°C° 0 mm 5 mps 756 mmHg 57%
    16:00 +28°C° 0 mm 5 mps 756 mmHg 60%
    17:00 +27°C° 0 mm 5 mps 755 mmHg 62%
    18:00 +26°C° 0 mm 4 mps 755 mmHg 71%
    19:00 +23°C° 0 mm 4 mps 756 mmHg 80%
    20:00 +21°C° 0 mm 3 mps 756 mmHg 89%
    21:00 +21°C° 0 mm 3 mps 756 mmHg 91%
    22:00 +21°C° 0 mm 3 mps 756 mmHg 92%
    23:00 +20°C° 0 mm 3 mps 756 mmHg 93%

    Tomorrow, 19 June, Wednesday

    Time Temperature Precipitation Wind Pressure Humidity
    00:00 +20°C° 0 mm 3 mps 756 mmHg 94%
    01:00 +20°C° 0 mm 3 mps 756 mmHg 94%
    02:00 +20°C° 0 mm 3 mps 756 mmHg 95%
    03:00 +20°C° 0 mm 3 mps 756 mmHg 94%
    04:00 +19°C° 0 mm 3 mps 756 mmHg 94%
    05:00 +19°C° 0 mm 3 mps 755 mmHg 94%
    06:00 +21°C° 0.1 mm 3 mps 756 mmHg 87%
    07:00 +22°C° 0.1 mm 4 mps 756 mmHg 79%
    08:00 +25°C° 0.1 mm 4 mps 756 mmHg 72%
    09:00 +26°C° 0 mm 4 mps 756 mmHg 67%
    10:00 +27°C° 0 mm 4 mps 756 mmHg 62%
    11:00 +28°C° 0 mm 4 mps 756 mmHg 56%
    12:00 +29°C° 0 mm 5 mps 755 mmHg 55%
    13:00 +29°C° 0 mm 5 mps 755 mmHg 55%
    14:00 +29°C° 0 mm 5 mps 755 mmHg 54%
    15:00 +29°C° 0 mm 4 mps 755 mmHg 55%
    16:00 +28°C° 0 mm 4 mps 754 mmHg 57%
    17:00 +28°C° 0 mm 3 mps 754 mmHg 59%
    18:00 +26°C° 0 mm 3 mps 754 mmHg 69%
    19:00 +24°C° 0 mm 2 mps 754 mmHg 78%
    20:00 +21°C° 0 mm 2 mps 754 mmHg 87%
    21:00 +21°C° 0 mm 2 mps 755 mmHg 88%
    22:00 +21°C° 0 mm 2 mps 755 mmHg 88%
    23:00 +20°C° 0 mm 2 mps 755 mmHg 89%

    Day after tomorrow, 20 June, Thursday

    Time Temperature Precipitation Wind Pressure Humidity
    00:00 +20°C° 0 mm 2 mps 755 mmHg 90%
    01:00 +20°C° 0 mm 2 mps 754 mmHg 91%
    02:00 +19°C° 0 mm 3 mps 754 mmHg 91%
    03:00 +19°C° 0 mm 3 mps 754 mmHg 91%
    04:00 +19°C° 0 mm 3 mps 754 mmHg 90%
    05:00 +19°C° 0 mm 3 mps 754 mmHg 89%
    06:00 +20°C° 0 mm 3 mps 754 mmHg 83%
    07:00 +22°C° 0 mm 3 mps 754 mmHg 76%
    08:00 +25°C° 0 mm 3 mps 754 mmHg 69%
    09:00 +26°C° 0 mm 3 mps 754 mmHg 65%
    10:00 +27°C° 0 mm 3 mps 754 mmHg 61%
    11:00 +29°C° 0 mm 3 mps 754 mmHg 56%
    12:00 +29°C° 0 mm 3 mps 754 mmHg 56%
    13:00 +29°C° 0 mm 4 mps 754 mmHg 56%
    14:00 +29°C° 0 mm 4 mps 754 mmHg 56%
    15:00 +29°C° 0 mm 4 mps 754 mmHg 59%
    16:00 +29°C° 0 mm 3 mps 754 mmHg 61%
    17:00 +28°C° 0 mm 3 mps 754 mmHg 63%
    18:00 +27°C° 0 mm 3 mps 754 mmHg 71%
    19:00 +25°C° 0 mm 2 mps 754 mmHg 79%
    20:00 +23°C° 0 mm 2 mps 754 mmHg 87%
    21:00 +23°C° 0.1 mm 2 mps 755 mmHg 88%
    22:00 +21°C° 0.1 mm 2 mps 755 mmHg 89%
    23:00 +21°C° 0.1 mm 2 mps 755 mmHg 90%

    21 June, Friday

    Time Temperature Precipitation Wind Pressure Humidity
    00:00 +21°C° 0 mm 2 mps 755 mmHg 90%
    01:00 +21°C° 0 mm 2 mps 755 mmHg 90%
    02:00 +20°C° 0 mm 2 mps 755 mmHg 90%
    03:00 +20°C° 0 mm 2 mps 755 mmHg 89%
    04:00 +20°C° 0 mm 2 mps 755 mmHg 88%
    05:00 +20°C° 0 mm 2 mps 755 mmHg 88%
    06:00 +23°C° 0 mm 2 mps 755 mmHg 81%
    07:00 +25°C° 0 mm 2 mps 755 mmHg 74%
    08:00 +27°C° 0 mm 2 mps 756 mmHg 67%
    09:00 +28°C° 0 mm 2 mps 756 mmHg 62%
    10:00 +29°C° 0 mm 3 mps 756 mmHg 57%
    11:00 +30°C° 0 mm 3 mps 756 mmHg 53%
    12:00 +31°C° 0 mm 3 mps 755 mmHg 52%
    13:00 +31°C° 0 mm 3 mps 755 mmHg 51%
    14:00 +32°C° 0 mm 4 mps 755 mmHg 50%
    15:00 +32°C° 0 mm 4 mps 755 mmHg 54%
    16:00 +30°C° 0 mm 3 mps 755 mmHg 57%
    17:00 +29°C° 0 mm 3 mps 755 mmHg 60%
    18:00 +27°C° 0 mm 3 mps 755 mmHg 70%
    19:00 +26°C° 0 mm 3 mps 755 mmHg 79%
    20:00 +24°C° 0 mm 2 mps 755 mmHg 89%
    21:00 +24°C° 0 mm 2 mps 755 mmHg 91%
    22:00 +23°C° 0 mm 2 mps 756 mmHg 92%
    23:00 +23°C° 0 mm 2 mps 756 mmHg 94%

    22 June, Saturday

    Time Temperature Precipitation Wind Pressure Humidity
    00:00 +23°C° 0 mm 2 mps 756 mmHg 93%
    01:00 +23°C° 0 mm 2 mps 755 mmHg 93%
    02:00 +21°C° 0 mm 2 mps 755 mmHg 92%
    03:00 +21°C° 0 mm 2 mps 755 mmHg 91%
    04:00 +21°C° 0 mm 2 mps 755 mmHg 90%
    05:00 +21°C° 0 mm 2 mps 755 mmHg 88%
    06:00 +24°C° 0 mm 3 mps 756 mmHg 80%
    07:00 +26°C° 0 mm 3 mps 756 mmHg 73%
    08:00 +28°C° 0 mm 3 mps 756 mmHg 65%
    09:00 +29°C° 0 mm 3 mps 756 mmHg 60%
    10:00 +30°C° 0 mm 3 mps 756 mmHg 55%
    11:00 +32°C° 0 mm 4 mps 756 mmHg 50%
    12:00 +33°C° 0 mm 4 mps 756 mmHg 49%
    13:00 +33°C° 0 mm 4 mps 756 mmHg 49%
    14:00 +33°C° 0 mm 4 mps 756 mmHg 48%
    15:00 +33°C° 0 mm 4 mps 756 mmHg 52%
    16:00 +31°C° 0 mm 3 mps 756 mmHg 56%
    17:00 +30°C° 0 mm 3 mps 756 mmHg 59%
    18:00 +28°C° 0 mm 2 mps 756 mmHg 68%
    19:00 +26°C° 0 mm 1 mps 756 mmHg 76%
    20:00 +22°C° 0 mm 0 mps 757 mmHg 85%
    21:00 +24°C° 0 mm 1 mps 757 mmHg 84%
    22:00 +24°C° 0 mm 1 mps 757 mmHg 82%
    23:00 +23°C° 0 mm 1 mps 757 mmHg 81%

    23 June, Sunday

    Time Temperature Precipitation Wind Pressure Humidity
    00:00 +23°C° 0 mm 1 mps 757 mmHg 79%
    01:00 +23°C° 0 mm 1 mps 757 mmHg 76%
    02:00 +23°C° 0 mm 1 mps 757 mmHg 74%
    03:00 +23°C° 0 mm 2 mps 757 mmHg 73%
    04:00 +21°C° 0 mm 2 mps 757 mmHg 73%
    05:00 +21°C° 0 mm 2 mps 757 mmHg 72%
    06:00 +25°C° 0 mm 2 mps 757 mmHg 68%
    07:00 +27°C° 0 mm 2 mps 757 mmHg 63%
    08:00 +29°C° 0 mm 2 mps 758 mmHg 58%
    09:00 +30°C° 0 mm 2 mps 758 mmHg 54%
    10:00 +31°C° 0 mm 2 mps 758 mmHg 49%
    11:00 +34°C° 0 mm 2 mps 758 mmHg 45%
    12:00 +34°C° 0 mm 2 mps 757 mmHg 44%
    13:00 +34°C° 0 mm 3 mps 757 mmHg 44%
    14:00 +34°C° 0 mm 3 mps 757 mmHg 43%
    15:00 +32°C° 0 mm 2 mps 757 mmHg 46%
    16:00 +32°C° 0 mm 2 mps 757 mmHg 49%
    17:00 +31°C° 0 mm 2 mps 757 mmHg 52%
    18:00 +29°C° 0 mm 1 mps 757 mmHg 57%
    19:00 +27°C° 0 mm 1 mps 757 mmHg 62%
    20:00 +26°C° 0 mm 1 mps 757 mmHg 66%
    21:00 +25°C° 0 mm 1 mps 757 mmHg 67%
    22:00 +25°C° 0 mm 1 mps 757 mmHg 67%
    23:00 +22°C° 0 mm 0 mps 758 mmHg 67%
    Show more